CW7056 Olongapo City PH current weather conditions

sailwx.info

Wind from 034

Air temperature 26.7° C
Dewpoint 23.3° C

Last reported at 2015-Mar-06 13:47 UTC.
Time now 2015-Mar-06 14:12 UTC

Location: N 14°51' E 120°16'.
View on Google Maps.

See reports from other nearby stations

  
Tides and Currents Weather Stations Pressure Air Temp Water Temp Dewpoint Dewpoint Depression Visibility Wind Speed Wind Dir Waves Ship Positions
date/time (UTC)wind fromknots sea level pressurealtimeterstation pressurevisibilityair tempwater tempwave heightnotes
2015-Mar-06 13:47 034 26.7
2015-Mar-06 13:37 034 26.7
2015-Mar-06 13:27 034 26.7
2015-Mar-06 13:17 034 0 gusting 2 26.7
2015-Mar-06 13:07 034 26.7
2015-Mar-06 12:57 034 0 gusting 2 26.7
2015-Mar-06 12:46 034 0 gusting 2 26.7
2015-Mar-06 12:36 034 27.2
2015-Mar-06 12:25 034 0 gusting 2 27.2
2015-Mar-06 12:15 034 27.2
2015-Mar-06 12:05 034 0 gusting 3 27.2
2015-Mar-06 11:55 034 0 gusting 3 27.2
2015-Mar-06 11:45 034 1 gusting 3 27.2
2015-Mar-06 11:35 036 1 gusting 3 27.8
2015-Mar-06 11:24 015 0 gusting 2 27.8
2015-Mar-06 11:14 017 1 gusting 2 27.8
2015-Mar-06 11:04 355 1 gusting 3 27.8
2015-Mar-06 10:54 281 27.8
2015-Mar-06 10:44 042 1 gusting 6 28.3
2015-Mar-06 10:34 010 0 gusting 3 28.3
2015-Mar-06 10:24 339 2 gusting 9 28.3
2015-Mar-06 10:14 015 4 gusting 9 28.3
2015-Mar-06 10:03 013 3 gusting 7 28.3
2015-Mar-06 09:52 013 2 gusting 8 28.9
2015-Mar-06 09:42 011 4 gusting 8 28.9
2015-Mar-06 09:32 026 3 gusting 7 29.4
2015-Mar-06 09:21 041 2 gusting 8 30.0
2015-Mar-06 09:11 010 3 gusting 8 30.6
2015-Mar-06 09:01 010 2 gusting 9 31.1
2015-Mar-06 08:51 022 3 gusting 9 31.7
2015-Mar-06 08:41 004 2 gusting 8 32.2
2015-Mar-06 08:31 013 3 gusting 6 32.2
2015-Mar-06 08:21 039 1 gusting 8 32.8
2015-Mar-06 08:11 007 2 gusting 8 33.3
2015-Mar-06 08:01 011 33.3
2015-Mar-06 07:51 007 4 gusting 7 33.3
2015-Mar-06 07:41 109 2 gusting 6 33.9
2015-Mar-06 07:30 028 2 gusting 10 33.9
2015-Mar-06 07:20 041 2 gusting 10 33.9
2015-Mar-06 07:10 078 1 gusting 7 33.9
2015-Mar-06 07:00 105 34.4
2015-Mar-06 06:50 068 2 gusting 10 34.4
2015-Mar-06 06:39 019 4 gusting 9 34.4
2015-Mar-06 06:29 093 2 gusting 9 33.9
2015-Mar-06 06:19 012 3 gusting 8 33.3
2015-Mar-06 06:09 029 2 gusting 7 34.4
2015-Mar-06 05:59 018 3 gusting 12 34.4
2015-Mar-06 05:49 017 4 gusting 12 33.9
2015-Mar-06 05:38 049 1 gusting 11 33.3
2015-Mar-06 05:28 052 2 gusting 11 33.3
2015-Mar-06 05:17 051 1 gusting 11 33.3
2015-Mar-06 05:07 129 6 gusting 11 33.3
2015-Mar-06 04:56 127 6 gusting 11 32.8
2015-Mar-06 04:46 040 3 gusting 11 33.3
2015-Mar-06 04:36 047 2 gusting 10 33.3
2015-Mar-06 04:26 037 3 gusting 9 33.9
2015-Mar-06 04:16 086 4 gusting 11 32.8
2015-Mar-06 04:04 107 4 gusting 12 32.8
2015-Mar-06 03:54 152 6 gusting 12 32.8
2015-Mar-06 03:43 133 4 gusting 13 32.8
2015-Mar-06 03:32 128 6 gusting 9 32.2
2015-Mar-06 03:22 007 4 gusting 10 32.2
2015-Mar-06 03:11 129 5 gusting 10 32.2
2015-Mar-06 03:01 153 3 gusting 6 30.6
2015-Mar-06 02:51 022 1 gusting 6 30.6
2015-Mar-06 02:41 315 1 gusting 3 31.1
2015-Mar-06 02:30 196 1 gusting 6 30.6
2015-Mar-06 02:20 168 4 gusting 4 30.6
2015-Mar-06 02:10 151 30.0
2015-Mar-06 01:58 150 30.6
2015-Mar-06 01:48 102 2 gusting 6 30.6
2015-Mar-06 01:38 076 2 gusting 6 29.4
2015-Mar-06 01:27 072 2 gusting 7 28.9
2015-Mar-06 01:17 064 3 gusting 7 27.8
2015-Mar-06 01:07 061 4 gusting 7 27.8
2015-Mar-06 00:56 068 4 gusting 7 27.8
2015-Mar-06 00:46 089 4 gusting 7 26.7
2015-Mar-06 00:36 067 3 gusting 9 26.1
2015-Mar-06 00:26 058 4 gusting 9 26.1
2015-Mar-06 00:16 095 1 gusting 6 26.1
2015-Mar-06 00:06 079 2 gusting 7 25.6
2015-Mar-05 23:56 064 1 gusting 6 25.0
2015-Mar-05 23:46 037 0 gusting 7 25.0
2015-Mar-05 23:36 070 2 gusting 8 24.4
2015-Mar-05 23:26 098 1 gusting 7 24.4
2015-Mar-05 23:16 085 4 gusting 7 23.9
2015-Mar-05 23:05 018 23.9
2015-Mar-05 22:55 013 0 gusting 3 23.3
2015-Mar-05 22:43 034 0 gusting 2 23.3
2015-Mar-05 22:33 034 0 gusting 1 23.3
2015-Mar-05 22:23 034 0 gusting 1 23.3
2015-Mar-05 22:13 034 23.3
2015-Mar-05 22:03 034 22.8
2015-Mar-05 21:52 034 22.8
2015-Mar-05 21:41 034 0 gusting 2 23.3
2015-Mar-05 21:31 034 1 gusting 2 23.3
2015-Mar-05 21:21 034 0 gusting 1 23.3
2015-Mar-05 21:11 034 1 gusting 1 23.3
2015-Mar-05 21:00 034 23.3
2015-Mar-05 20:50 034 1 gusting 2 23.9
2015-Mar-05 20:39 034 0 gusting 1 23.9
2015-Mar-05 20:29 034 23.9
2015-Mar-05 20:19 034 0 gusting 2 23.9
2015-Mar-05 20:09 034 24.4
2015-Mar-05 19:59 034 1 gusting 1 24.4
2015-Mar-05 19:49 034 24.4
2015-Mar-05 19:39 034 25.0
2015-Mar-05 19:28 034 1 gusting 1 25.0
2015-Mar-05 19:16 034 25.0
2015-Mar-05 19:06 034 25.0
2015-Mar-05 18:56 034 25.0
2015-Mar-05 18:46 034 1 gusting 3 25.0
2015-Mar-05 18:36 041 2 gusting 3 25.0
2015-Mar-05 18:25 041 25.6
2015-Mar-05 18:14 041 25.6
2015-Mar-05 18:04 041 25.6
2015-Mar-05 17:54 040 25.6
2015-Mar-05 17:43 040 26.1
2015-Mar-05 17:33 040 26.1
2015-Mar-05 17:23 040 26.1
2015-Mar-05 17:13 041 1 gusting 5 26.1
2015-Mar-05 17:03 044 26.1
2015-Mar-05 16:53 163 1 gusting 5 26.1
2015-Mar-05 16:43 155 2 gusting 5 26.1
2015-Mar-05 16:33 205 1 gusting 8 26.7
2015-Mar-05 16:23 009 3 gusting 9 26.7
2015-Mar-05 16:11 211 1 gusting 9 26.7
2015-Mar-05 16:01 095 0 gusting 9 26.7
2015-Mar-05 15:51 017 4 gusting 7 26.7
2015-Mar-05 15:41 051 2 gusting 7 26.7
2015-Mar-05 15:31 058 2 gusting 6 26.7
2015-Mar-05 15:21 088 2 gusting 5 26.7
2015-Mar-05 15:10 064 2 gusting 7 26.7
2015-Mar-05 15:00 042 2 gusting 6 26.7
2015-Mar-05 14:48 097 3 gusting 6 26.7
2015-Mar-05 14:38 042 2 gusting 6 26.7
2015-Mar-05 14:28 057 2 gusting 7 27.2
2015-Mar-05 14:17 078 1 gusting 7 27.2
2015-Mar-05 14:06 098 1 gusting 5 27.2
2015-Mar-05 13:56 033 1 gusting 5 27.2
2015-Mar-05 13:45 020 27.2
2015-Mar-05 13:35 359 1 gusting 8 27.2
2015-Mar-05 13:25 013 27.2
2015-Mar-05 13:14 115 27.2
2015-Mar-05 13:04 107 0 gusting 5 27.2
2015-Mar-05 12:53 113 1 gusting 6 27.2
2015-Mar-05 12:42 027 2 gusting 6 27.8
2015-Mar-05 12:32 135 2 gusting 8 27.8
2015-Mar-05 12:22 113 4 gusting 8 27.8
2015-Mar-05 12:12 029 3 gusting 7 27.8
2015-Mar-05 12:01 074 4 gusting 6 27.8
2015-Mar-05 11:51 067 2 gusting 4 28.3
2015-Mar-05 11:41 020 1 gusting 5 28.3
2015-Mar-05 11:31 055 0 gusting 5 28.3
2015-Mar-05 11:20 031 1 gusting 5 28.9
2015-Mar-05 11:09 059 1 gusting 4 28.9
2015-Mar-05 10:59 082 1 gusting 4 28.9
2015-Mar-05 10:49 017 2 gusting 4 28.9
2015-Mar-05 10:39 138 29.4
2015-Mar-05 10:29 114 1 gusting 4 29.4
2015-Mar-05 10:19 049 1 gusting 5 29.4
2015-Mar-05 10:09 352 1 gusting 5 29.4
2015-Mar-05 09:59 047 0 gusting 19 29.4
2015-Mar-05 09:49 026 3 gusting 19 29.4
2015-Mar-05 09:39 061 3 gusting 13 30.0
2015-Mar-05 09:28 084 3 gusting 13 30.0
2015-Mar-05 09:18 060 3 gusting 10 30.0
2015-Mar-05 09:07 092 4 gusting 13 30.6
2015-Mar-05 08:57 093 4 gusting 13 30.6
2015-Mar-05 08:46 091 6 gusting 14 30.6
2015-Mar-05 08:36 086 4 gusting 16 30.6
2015-Mar-05 08:26 067 7 gusting 14 31.1
2015-Mar-05 08:15 091 5 gusting 13 31.1
2015-Mar-05 08:04 035 2 gusting 11 31.7
2015-Mar-05 07:54 035 5 gusting 11 32.2
2015-Mar-05 07:44 048 3 gusting 13 32.2
2015-Mar-05 07:34 048 3 gusting 14 32.2
2015-Mar-05 07:23 046 4 gusting 14 32.2
2015-Mar-05 07:13 018 6 gusting 13 32.8
2015-Mar-05 07:03 020 4 gusting 13 33.3
2015-Mar-05 06:53 067 3 gusting 9 33.3
2015-Mar-05 06:43 134 6 gusting 12 33.9
2015-Mar-05 06:33 127 6 gusting 12 33.9
2015-Mar-05 06:21 024 3 gusting 12 33.9
2015-Mar-05 06:11 128 6 gusting 13 35.0
2015-Mar-05 06:00 106 5 gusting 14 34.4
2015-Mar-05 05:50 077 6 gusting 14 34.4
2015-Mar-05 05:39 057 6 gusting 13 33.9
2015-Mar-05 05:28 060 7 gusting 18 34.4
2015-Mar-05 05:18 134 4 gusting 18 33.9
2015-Mar-05 04:44 131 5 gusting 18 34.4
2015-Mar-05 04:34 136 7 gusting 18 34.4
2015-Mar-05 04:24 088 3 gusting 11 33.3
2015-Mar-05 04:14 064 5 gusting 12 32.8
2015-Mar-05 04:04 042 5 gusting 15 32.8
2015-Mar-05 03:54 064 5 gusting 15 32.8
2015-Mar-05 02:42 136 3 gusting 13 32.2
2015-Mar-05 02:32 068 2 gusting 13 32.8
2015-Mar-05 02:22 101 2 gusting 12 31.7
2015-Mar-05 02:12 150 6 gusting 12 31.7
2015-Mar-05 02:01 087 5 gusting 14 31.1
2015-Mar-05 01:51 025 2 gusting 13 31.1
2015-Mar-05 01:40 038 3 gusting 12 30.6
2015-Mar-05 01:30 022 2 gusting 12 30.6
2015-Mar-05 01:20 080 3 gusting 8 30.0
2015-Mar-05 01:10 074 4 gusting 12 29.4
2015-Mar-05 01:00 052 4 gusting 12 29.4
2015-Mar-05 00:50 081 4 gusting 10 28.9
2015-Mar-05 00:40 076 5 gusting 11 28.3
2015-Mar-05 00:30 020 4 gusting 8 28.3
2015-Mar-05 00:19 112 3 gusting 7 28.3
2015-Mar-05 00:08 132 3 gusting 7 27.8
2015-Mar-04 23:58 085 3 gusting 6 27.2
2015-Mar-04 23:48 024 25.6
2015-Mar-04 23:38 150 3 gusting 5 24.4
2015-Mar-04 23:28 122 1 gusting 4 23.3
2015-Mar-04 23:18 080 22.8
2015-Mar-04 23:08 065 22.8
2015-Mar-04 22:58 065 22.8
2015-Mar-04 22:48 065 0 gusting 1 22.8
2015-Mar-04 22:38 065 22.8
2015-Mar-04 22:28 063 1 gusting 1 22.8
2015-Mar-04 22:18 063 0 gusting 2 22.8
2015-Mar-04 22:07 063 22.8
2015-Mar-04 21:56 063 0 gusting 2 22.8
2015-Mar-04 21:46 033 0 gusting 4 22.8
2015-Mar-04 21:36 032 1 gusting 4 22.8
2015-Mar-04 21:26 035 1 gusting 3 23.3
2015-Mar-04 21:16 048 0 gusting 4 23.3
2015-Mar-04 21:05 053 2 gusting 4 23.3
2015-Mar-04 20:55 033 2 gusting 2 23.9
2015-Mar-04 20:44 034 0 gusting 2 23.9
2015-Mar-04 20:34 057 0 gusting 2 24.4
2015-Mar-04 20:24 058 24.4
2015-Mar-04 20:14 058 24.4
2015-Mar-04 20:03 058 24.4
2015-Mar-04 19:53 058 25.0
2015-Mar-04 19:43 059 25.0
2015-Mar-04 19:33 079 1 gusting 8 25.0
2015-Mar-04 19:23 080 5 gusting 9 25.0
2015-Mar-04 19:12 090 4 gusting 9 25.0
2015-Mar-04 19:02 096 3 gusting 10 25.0
2015-Mar-04 18:52 100 4 gusting 8 24.4
2015-Mar-04 18:41 101 3 gusting 6 24.4
2015-Mar-04 18:31 089 1 gusting 4 24.4
2015-Mar-04 18:21 115 0 gusting 4 25.0
2015-Mar-04 18:11 034 25.0
2015-Mar-04 18:01 027 0 gusting 1 25.0
2015-Mar-04 17:50 027 25.6
2015-Mar-04 17:37 027 25.6
2015-Mar-04 17:27 027 25.6
2015-Mar-04 17:17 027 25.6
2015-Mar-04 17:05 027 25.6
2015-Mar-04 16:54 022 1 gusting 6 25.6
2015-Mar-04 16:43 022 25.6
2015-Mar-04 16:33 030 1 gusting 6 25.6
2015-Mar-04 16:23 108 3 gusting 6 26.1
2015-Mar-04 16:11 072 1 gusting 8 26.1
2015-Mar-04 16:01 063 2 gusting 8 26.1
2015-Mar-04 15:50 070 2 gusting 8 25.6
2015-Mar-04 15:40 073 4 gusting 9 25.6
2015-Mar-04 15:29 005 1 gusting 4 25.6
2015-Mar-04 15:19 048 1 gusting 4 25.0
2015-Mar-04 15:09 088 25.0
2015-Mar-04 14:59 096 25.6
2015-Mar-04 14:49 021 1 gusting 1 25.6
2015-Mar-04 14:39 021 25.6
2015-Mar-04 14:28 021 0 gusting 1 25.6
2015-Mar-04 14:17 021 25.6
2015-Mar-04 14:07 021 25.6